Location: Saint-Palais-sur-Mer
(45.6429°N, 1.0859°W)
Time: 14:06:24
(UTC+01:00)

ARIANE 6 FM1 Upper Stage - Pass Details

Date: 22 January 2026
Orbit: 522 x 609 km, 62.0° (Epoch: 13 February)

Event Time Altitude Azimuth Distance (km) Brightness Sun altitude
Rises 20:09:09 0° 220° (SW) 2,708 6.8 -23.0°
Reaches altitude 10° 20:11:23 10° 221° (SW) 1,805 5.8 -23.4°
Enters shadow 20:14:59 69° 230° (SW) 576 2.7 -24.0°
